Location: Pamplona
(42.8170°N, 1.6330°W)
Time: 21:50:08
(UTC+01:00)

ISS - Visible Passes

Search period start: 22 February 2020 00:00
Search period end: 03 March 2020 00:00
Orbit: 415 x 422 km, 51.6° (Epoch: 23 February)

Date Brightness Start Highest point End Pass type
(mag) Time Alt. Az. Time Alt. Az. Time Alt. Az.
22 Feb -1.9 06:40:42 10° SSW 06:43:41 30° SE 06:46:41 10° ENE visible
23 Feb -1.3 05:54:54 15° SSE 05:56:13 18° SE 05:58:36 10° E visible
24 Feb -3.8 06:42:43 18° SW 06:45:04 84° SSE 06:48:28 10° ENE visible
25 Feb -3.1 05:57:22 50° SSE 05:57:28 50° SE 06:00:45 10° ENE visible
26 Feb -0.8 05:11:52 17° E 05:11:52 17° E 05:12:54 10° ENE visible
26 Feb -3.1 06:44:50 22° W 06:46:37 41° NNW 06:49:51 10° NE visible
27 Feb -3.4 05:59:13 57° N 05:59:13 57° N 06:02:15 10° NE visible
28 Feb -1.0 05:13:31 19° ENE 05:13:31 19° ENE 05:14:36 10° ENE visible
28 Feb -2.2 06:46:28 16° WNW 06:48:20 24° NNW 06:51:09 10° NE visible
29 Feb -2.5 06:00:42 30° NNW 06:00:42 30° NNW 06:03:32 10° NE visible
01 Mar -1.1 05:14:51 18° NE 05:14:51 18° NE 05:15:55 10° NE visible
01 Mar -1.7 06:47:48 11° NW 06:50:07 19° N 06:52:36 10° NE visible
02 Mar -1.9 06:01:55 20° NNW 06:02:12 21° N 06:04:50 10° NE visible
